Preview of NWS' New Version of Forecast
This preview is not operational and should not be used for support decisions.

Regional Weather Roundup (RWR)

Issued by National Weather Service (NWS)

                            
000
ASUS43 KTOP 242059
RWRKS 

WEATHER ROUNDUP FOR KANSAS
NATIONAL WEATHER SERVICE GOODLAND KS
400 PM CDT MON JUN 24 2019

NOTE:  "FAIR" INDICATES FEW OR NO CLOUDS BELOW 12,000 FEET WITH NO
SIGNIFICANT WEATHER AND/OR OBSTRUCTIONS TO VISIBILITY.

KSZ001>006-013>018-027>032-041>047-242200-
NORTHWEST KANSAS
  
CITY           SKY/WX    TMP DP  RH WIND       PRES   REMARKS
GOODLAND       MOSUNNY   83  44  25 SW9G28    29.88S                  
HAYS           SUNNY     85  53  33 SW13G21   29.84F                  
HILL CITY      SUNNY     88  49  25 W14G29    29.82F                  
RUSSELL        SUNNY     85  50  29 SW18G26   29.83F                  
$$

KSZ061>065-074>080-084>089-242200-
SOUTHWEST KANSAS
  
CITY           SKY/WX    TMP DP  RH WIND       PRES   REMARKS
DODGE CITY     SUNNY     84  49  29 SW14      29.90F                  
GARDEN CITY    MOSUNNY   83  47  28 S17G29    29.89F                  
GREAT BEND     SUNNY     83  56  39 SW15      29.87F                  
LIBERAL        MOSUNNY   81  51  35 SW13      29.94F                  
$$

KSZ066>073-081>083-090>101-242200-
SOUTHEAST KANSAS
  
CITY           SKY/WX    TMP DP  RH WIND       PRES   REMARKS
CHANUTE        SUNNY     80  58  46 W10       29.90F                  
COFFEYVILLE    SUNNY     80  57  45 SW6       29.89F                  
HUTCHINSON     SUNNY     82  52  35 W10G16    29.88F                  
MEDICINE LODGE   N/A     84  53  34 SW9       29.88F                  
NEWTON         SUNNY     79  55  43 SW9       29.90F                  
PARSONS        SUNNY     80  60  50 W8        29.91F                  
WICHITA INTL   SUNNY     82  52  35 W7G18     29.88F                  
WICHITA JABRA  SUNNY     81  53  37 SW12      29.89F                  
WICHITA MCCONL SUNNY     81  55  41 S7        29.89F                  
WINFIELD       SUNNY     82  56  40 VRB6      29.91F                  
$$

KSZ007>012-019>026-033>040-048>060-102>105-242200-
NORTHEAST KANSAS
  
CITY           SKY/WX    TMP DP  RH WIND       PRES   REMARKS
CONCORDIA      SUNNY     83  55  38 S14       29.83F                  
EMPORIA        SUNNY     79  56  45 SW15      29.88F                  
MANHATTAN      SUNNY     81  55  40 SW15G22   29.84F                  
OLATHE IND     SUNNY     78  55  44 W16       29.87F                  
OLATHE EXE     SUNNY     77  55  46 W9        29.86F                  
SALINA         SUNNY     83  54  36 SW10G20   29.86F                  
TOPEKA BILLARD SUNNY     81  56  42 W10G20    29.84F                  
TOPEKA FORBES  SUNNY     81  56  42 SW13      29.85F                  
$$